Date String (YYYY-MM-DD hh:mm:ss) UTC,Instrument flags,absolute air pressure of the measurement (hPa),sample flow rate (lpm),inlet stack bypass flow (lpm),air temperature of the measurement (°C),ambient temperature measured by the external sensor (°C),aerosol sample conditioner tube jacket temperature (°C),OPC LED temperature (°C),internal box temperature (°C),relative humidity of the measurement (%),span deviation,mass concentration of particles derived from Lorenz-Mie calculation of OPC scattering (μg/m³),mass concentration of particles derived from Lorenz-Mie calculation of OPC scattering (μg/m³),mass concentration of particles derived from Lorenz-Mie calculation of OPC scattering (μg/m³)
DateTimeUTC,F1_M11,P_M11,Q1_M11,Q2_M11,T1_M11,T2_M11,T3_M11,T4_M11,T5_M11,U1_M11,ZSPAN_M11,X2_M11,X0_M11,X1_M11
2023-08-02 06:00:00,SystemResetWarning,0835.0,5.00,000.00,031.4,027.4,000.0,039.5,031.8,34.9,0000.0,0003.80,0007.72,0003.21
2023-08-02 06:01:00,SystemResetWarning,0835.0,5.00,000.00,031.3,025.9,000.0,039.3,031.5,34.9,0000.0,0003.81,0007.68,0003.23
2023-08-02 06:02:00,SystemResetWarning,0834.9,5.01,000.00,031.1,025.5,000.0,039.3,031.2,34.8,0000.0,0003.83,0007.70,0003.24
2023-08-02 06:03:00,SystemResetWarning,0835.1,5.01,000.00,031.0,025.8,000.0,039.3,031.1,34.9,0000.0,0003.86,0007.73,0003.24
2023-08-02 06:04:00,SystemResetWarning,0835.3,5.01,000.00,030.8,026.2,000.0,039.3,031.2,34.8,0000.0,0003.86,0007.70,0003.26
2023-08-02 06:05:00,SystemResetWarning,0834.9,4.97,000.00,030.8,026.6,000.0,039.3,031.2,35.0,0000.0,0003.89,0007.84,0003.28
2023-08-02 06:06:00,SystemResetWarning,0834.7,5.04,000.00,030.9,026.9,000.0,039.2,031.3,34.9,0000.0,0003.92,0007.87,0003.31
2023-08-02 06:07:00,SystemResetWarning,0834.8,4.96,000.00,031.0,027.2,000.0,039.2,031.5,34.7,0000.0,0003.95,0007.93,0003.33
2023-08-02 06:08:00,SystemResetWarning,0834.7,5.02,000.00,031.1,027.5,000.0,039.2,031.5,34.8,0000.0,0003.98,0008.11,0003.33
2023-08-02 06:09:00,SystemResetWarning,0834.7,5.01,000.00,031.1,027.7,000.0,039.2,031.5,34.8,0000.0,0003.95,0007.74,0003.32
2023-08-02 06:10:00,SystemResetWarning,0834.8,4.99,000.00,031.1,027.9,000.0,039.2,031.5,34.8,0000.0,0003.91,0007.14,0003.30
2023-08-02 06:11:00,SystemResetWarning,0835.2,4.99,000.00,031.1,028.0,000.0,039.2,031.6,34.7,0000.0,0003.92,0007.23,0003.29
2023-08-02 06:12:00,SystemResetWarning,0835.1,5.00,000.00,031.1,028.1,000.0,039.2,031.6,34.6,0000.0,0003.94,0007.76,0003.30
2023-08-02 06:13:00,SystemResetWarning,0834.6,5.01,000.00,031.1,028.2,000.0,039.2,031.6,34.4,0000.0,0003.95,0007.81,0003.31
2023-08-02 06:14:00,SystemResetWarning,0834.6,5.01,000.00,031.1,028.3,000.0,039.3,031.6,34.1,0000.0,0003.93,0007.86,0003.31
2023-08-02 06:15:00,SystemResetWarning,0835.1,4.98,000.00,031.1,028.4,000.0,039.3,031.7,33.8,0000.0,0003.90,0007.82,0003.32
2023-08-02 06:16:00,SystemResetWarning,0835.3,4.99,000.00,031.1,028.5,000.0,039.3,031.7,33.9,0000.0,0003.92,0007.81,0003.33
2023-08-02 06:17:00,SystemResetWarning,0835.2,5.00,000.00,031.1,028.6,000.0,039.3,031.7,34.3,0000.0,0003.98,0008.36,0003.34
2023-08-02 06:18:00,SystemResetWarning,0835.2,5.01,000.00,031.1,028.6,000.0,039.3,031.8,34.4,0000.0,0004.01,0008.94,0003.35
2023-08-02 06:19:00,SystemResetWarning,0834.9,5.00,000.00,031.1,028.7,000.0,039.3,031.8,34.4,0000.0,0004.01,0008.89,0003.35
2023-08-02 06:20:00,SystemResetWarning,0834.6,4.99,000.00,031.0,028.6,000.0,039.3,031.8,34.4,0000.0,0004.04,0008.97,0003.36
2023-08-02 06:21:00,SystemResetWarning,0834.8,4.99,000.00,031.0,027.0,000.0,039.2,031.6,34.4,0000.0,0004.17,0009.49,0003.39
2023-08-02 06:22:00,SystemResetWarning,0835.1,5.02,000.00,030.9,025.8,000.0,039.0,031.4,34.5,0000.0,0004.37,0010.14,0003.42
2023-08-02 06:23:00,SystemResetWarning,0835.1,5.00,000.00,030.8,025.6,000.0,039.0,031.1,34.7,0000.0,0004.41,0009.85,0003.44
2023-08-02 06:24:00,SystemResetWarning,0834.9,4.98,000.00,030.6,025.9,000.0,039.0,031.0,35.0,0000.0,0004.53,0010.19,0003.46
2023-08-02 06:25:00,SystemResetWarning,0834.6,5.02,000.00,030.6,026.2,000.0,039.0,031.1,35.0,0000.0,0004.65,0010.48,0003.47
2023-08-02 06:26:00,SystemResetWarning,0835.0,4.99,000.00,030.7,026.6,000.0,039.0,031.3,34.7,0000.0,0004.79,0010.87,0003.50
2023-08-02 06:27:00,SystemResetWarning,0834.9,4.99,000.00,030.8,027.0,000.0,039.0,031.3,34.6,0000.0,0004.93,0012.05,0003.52
2023-08-02 06:28:00,SystemResetWarning,0835.0,5.02,000.00,030.9,027.3,000.0,039.0,031.4,34.5,0000.0,0005.03,0012.73,0003.53
2023-08-02 06:29:00,SystemResetWarning,0835.1,4.98,000.00,030.9,027.5,000.0,039.0,031.4,34.5,0000.0,0005.26,0013.13,0003.57
2023-08-02 06:30:00,SystemResetWarning,0834.7,5.01,000.00,030.9,027.7,000.0,039.0,031.4,34.4,0000.0,0005.47,0013.90,0003.61
2023-08-02 06:31:00,SystemResetWarning,0834.9,5.01,000.00,030.9,027.9,000.0,039.0,031.5,34.4,0000.0,0005.74,0014.82,0003.67
2023-08-02 06:32:00,SystemResetWarning,0835.1,4.99,000.00,030.9,028.1,000.0,039.0,031.5,34.5,0000.0,0006.09,0017.02,0003.74
2023-08-02 06:33:00,SystemResetWarning,0834.7,5.00,000.00,030.9,028.2,000.0,039.1,031.5,34.5,0000.0,0006.62,0020.85,0003.83
2023-08-02 06:34:00,SystemResetWarning,0834.7,5.00,000.00,030.9,028.3,000.0,039.1,031.6,34.6,0000.0,0007.30,0026.34,0003.96
2023-08-02 06:35:00,SystemResetWarning,0834.7,5.00,000.00,030.9,028.4,000.0,039.1,031.6,34.6,0000.0,0007.94,0030.70,0004.07
2023-08-02 06:36:00,SystemResetWarning,0834.7,5.00,000.00,030.9,028.4,000.0,039.1,031.6,34.7,0000.0,0008.38,0033.08,0004.16
2023-08-02 06:37:00,SystemResetWarning,0834.9,5.00,000.00,030.9,028.5,000.0,039.1,031.7,34.7,0000.0,0008.75,0036.25,0004.22
2023-08-02 06:38:00,SystemResetWarning,0834.8,5.00,000.00,030.9,028.6,000.0,039.1,031.7,34.8,0000.0,0009.05,0039.85,0004.28
2023-08-02 06:39:00,SystemResetWarning,0834.9,5.00,000.00,030.9,028.6,000.0,039.1,031.7,34.8,0000.0,0009.27,0040.42,0004.32
2023-08-02 06:40:00,SystemResetWarning,0835.4,5.00,000.00,030.9,028.7,000.0,039.1,031.7,34.9,0000.0,0009.29,0040.14,0004.34
2023-08-02 06:41:00,SystemResetWarning,0835.0,5.00,000.00,030.9,028.7,000.0,039.1,031.7,34.9,0000.0,0009.41,0040.58,0004.35
2023-08-02 06:42:00,SystemResetWarning,0835.2,4.97,000.00,030.9,027.7,000.0,039.1,031.7,35.0,0000.0,0009.44,0040.62,0004.34
2023-08-02 06:43:00,SystemResetWarning,0834.7,5.02,000.00,030.8,026.1,000.0,038.9,031.4,35.2,0000.0,0009.27,0039.32,0004.31
2023-08-02 06:44:00,SystemResetWarning,0834.8,5.00,000.00,030.9,025.5,000.0,038.9,031.3,35.1,0000.0,0008.67,0035.25,0004.22
2023-08-02 06:45:00,SystemResetWarning,0834.8,5.01,000.00,031.1,025.7,000.0,038.9,031.2,35.0,0000.0,0007.96,0029.62,0004.10
2023-08-02 06:46:00,SystemResetWarning,0835.2,4.97,000.00,031.3,026.1,000.0,038.9,031.3,34.6,0000.0,0007.32,0025.68,0004.00
2023-08-02 06:47:00,SystemResetWarning,0834.7,5.01,000.00,031.4,026.5,000.0,039.0,031.4,34.6,0000.0,0006.81,0023.24,0003.92
2023-08-02 06:48:00,SystemResetWarning,0834.8,5.01,000.00,031.5,026.8,000.0,039.0,031.4,34.6,0000.0,0006.46,0020.62,0003.86
2023-08-02 06:49:00,SystemResetWarning,0834.7,5.00,000.00,031.5,027.2,000.0,039.1,031.5,34.6,0000.0,0006.06,0015.89,0003.80
2023-08-02 06:50:00,SystemResetWarning,0834.7,4.99,000.00,031.5,027.4,000.0,039.2,031.5,34.6,0000.0,0005.76,0014.06,0003.74
2023-08-02 06:51:00,SystemResetWarning,0834.8,4.99,000.00,031.5,027.7,000.0,039.2,031.5,34.6,0000.0,0005.61,0013.59,0003.70
2023-08-02 06:52:00,SystemResetWarning,0834.7,5.00,000.00,031.5,027.8,000.0,039.3,031.5,34.7,0000.0,0005.31,0012.60,0003.67
2023-08-02 06:53:00,SystemResetWarning,0834.8,5.00,000.00,031.5,028.0,000.0,039.3,031.6,34.8,0000.0,0005.06,0011.69,0003.64
2023-08-02 06:54:00,SystemResetWarning,0834.7,5.01,000.00,031.5,028.2,000.0,039.4,031.7,34.8,0000.0,0004.87,0010.79,0003.61
2023-08-02 06:55:00,SystemResetWarning,0834.8,5.00,000.00,031.5,028.3,000.0,039.4,031.7,34.8,0000.0,0004.79,0010.42,0003.59
2023-08-02 06:56:00,SystemResetWarning,0835.1,5.00,000.00,031.5,028.4,000.0,039.4,031.7,34.8,0000.0,0004.75,0010.56,0003.58
2023-08-02 06:57:00,SystemResetWarning,0835.3,5.00,000.00,031.5,028.4,000.0,039.5,031.7,34.9,0000.0,0004.70,0010.69,0003.57
2023-08-02 06:58:00,SystemResetWarning,0835.4,5.00,000.00,031.5,028.5,000.0,039.5,031.7,35.0,0000.0,0004.72,0010.72,0003.58
2023-08-02 06:59:00,SystemResetWarning,0834.9,4.98,000.00,031.5,028.6,000.0,039.5,031.8,35.0,0000.0,0004.72,0010.70,0003.59
